This demonstration page uses our WeatherBlox Daily Observations layout. Learn more.

Left ArrowRight Arrow

38.88101, -77.10428

Hourly Observations for October 29, 2022

Temp ( °F °C ) Dew Point ( °F °C ) Humidity (%) Winds ( mph kmh ) Pressure ( in mb ) Visibility ( mi km ) Precip ( " mm )
12:52 am 00:52 Partly Cloudy 51 10.6 43 6.1 74 74 NNE 8 13 30.48 1032 10 16 0.00 0.00
1:52 am 01:52 Partly Cloudy 50 10 43 6.1 77 77 NNE 6 9 30.47 1032 10 16 0.00 0.00
2:52 am 02:52 Mostly Clear 49 9.4 42 5.6 77 77 N 6 9 30.46 1031 10 16 0.00 0.00
3:52 am 03:52 Mostly Clear 48 8.9 42 5.6 80 80 NNW 8 13 30.45 1031 10 16 0.00 0.00
4:52 am 04:52 Partly Cloudy 47 8.3 42 5.6 83 83 NNW 9 15 30.45 1031 10 16 0.00 0.00
5:52 am 05:52 Mostly Clear 46 7.8 41 5 82 82 N 5 7 30.45 1031 10 16 0.00 0.00
6:52 am 06:52 Partly Cloudy 46 7.8 41 5 82 82 NNW 7 11 30.46 1032 10 16 0.00 0.00
7:52 am 07:52 Partly Cloudy 46 7.8 41 5 82 82 N 6 9 30.46 1032 10 16 0.00 0.00
8:52 am 08:52 Mostly Sunny 52 11.1 44 6.7 74 74 ENE 6 9 30.47 1032 10 16 0.00 0.00
9:52 am 09:52 Mostly Sunny 56 13.3 43 6.1 62 62 NNE 12 19 30.49 1032 10 16 0.00 0.00
10:52 am 10:52 Mostly Sunny 56 13.3 43 6.1 62 62 ENE 7 11 30.48 1032 10 16 0.00 0.00
11:52 am 11:52 Mostly Sunny 59 15 42 5.6 53 53 VRB 6 9 30.47 1032 10 16 0.00 0.00
12:52 pm 12:52 Mostly Sunny 61 16.1 42 5.6 50 50 NE 7 11 30.45 1031 10 16 0.00 0.00
1:52 pm 13:52 Mostly Sunny 62 16.7 40 4.4 44 44 NNE 7 11 30.42 1030 10 16 0.00 0.00
2:52 pm 14:52 Mostly Sunny 63 17.2 39 3.9 41 41 ENE 5 7 30.40 1030 10 16 0.00 0.00
3:52 pm 15:52 Sunny 63 17.2 38 3.3 39 39 ENE 6 9 30.40 1029 10 16 0.00 0.00
4:52 pm 16:52 Mostly Sunny 62 16.7 37 2.8 39 39 E 9 15 30.39 1029 10 16 0.00 0.00
5:52 pm 17:52 Mostly Sunny 59 15 38 3.3 45 45 E 8 13 30.38 1029 10 16 0.00 0.00
6:52 pm 18:52 Clear 56 13.3 38 3.3 51 51 ESE 5 7 30.38 1029 10 16 0.00 0.00
7:52 pm 19:52 Clear 55 12.8 37 2.8 51 51 Calm 30.39 1029 10 16 0.00 0.00
8:52 pm 20:52 Clear 53 11.7 41 5 63 63 Calm 30.38 1029 10 16 0.00 0.00
9:52 pm 21:52 Clear 51 10.6 40 4.4 65 65 Calm 30.37 1029 10 16 0.00 0.00
10:52 pm 22:52 Clear 49 9.4 40 4.4 71 71 Calm 30.37 1028 10 16 0.00 0.00
11:52 pm 23:52 Clear 47 8.3 40 4.4 76 76 N 5 7 30.35 1028 10 16 0.00 0.00

Powered by AerisWeather